sat.trackr.live / text

‹ back to catalog

STARLINK-4705

NORAD 53723 · 2022-107Z

PAYLOAD ACTIVE UNKNOWN

§ Identity

Operator
Country
US
Launch date
2022-09-05
Launch site
AFETR
Launch vehicle
Mass (kg)
RCS (m²)

Purposes: comms

External: N2YO · Heavens-Above · Gunter

§ Orbital elements

Epoch: 2026-05-24T19:58:32.187072Z

Period
95.44 min
Inclination
53.2147°
Eccentricity
0.0001351
Mean motion
15.08832560 rev/d
Perigee alt
538.8 km
Apogee alt
540.7 km
Semi-major
6,917.9 km
B*
-9.7946e-6
RAAN
271.9467°
Arg perigee
91.6579°
Mean anomaly
268.4568°
Rev number
20,605

§ Raw data

STARLINK-47051 53723U 22107Z   26144.83231698 -.00000444  00000+0 -97946-5 0  99922 53723  53.2147 271.9467 0001351  91.6579 268.4568 15.08832560206057

JSON: /api/v1/satellites/53723 · /tle

For live sub-satellite position, see the globe view (requires WebGL).

§ Visibility from observer

Set your observer location to see the next 7 days of passes ≥ 10°. The values pass through the URL so the page stays shareable.

No JS? Fill the form by hand. The geolocation button needs JavaScript.